Wind_Speed
15 15 15 9 7 5 4 7 10 10 10 13 14 14 10 8 8 10 11 10 8 8 9 9 9 9 8 7 8 9 8 8 5 4 3 2 3 5 7 8 8 8 11 12
16 15 12 10 6 6 4 3 6 11 7 5 11 13 12 11 10 10 11 12 11 10 10 10 7 7 8 7 7 9 11 9 7 6 5 5 6 8 9 9 9 9 12 15
15 14 12 9 5 7 6 6 7 10 12 7 7 15 16 13 15 14 14 17 15 11 11 8 8 7 6 7 5 3 9 10 6 5 7 9 9 9 11 12 12 12 13 16
15 14 12 9 7 9 6 7 8 7 8 5 13 13 19 16 18 18 18 17 17 15 13 10 6 6 7 8 7 5 8 5 3 3 5 5 9 10 10 13 16 16 19 22
11 15 14 9 8 8 6 7 5 5 6 8 13 10 14 19 22 22 24 16 18 17 16 13 11 11 10 8 12 15 14 13 12 9 6 6 8 9 13 17 19 20 24 23
14 14 13 12 10 7 4 3 9 9 7 6 9 14 12 21 21 21 25 21 19 18 17 16 16 16 16 17 16 10 7 8 7 7 10 11 11 14 16 19 22 23 25 27
17 15 15 15 12 10 7 3 3 4 4 1 6 6 9 7 17 21 23 23 21 20 19 17 16 13 11 9 7 9 7 3 3 2 2 5 11 14 17 20 24 28 30 31
15 14 16 15 16 11 10 5 2 3 2 1 5 5 4 8 9 17 18 25 25 20 19 18 13 17 11 7 7 11 12 10 12 10 8 10 17 20 16 17 21 26 30 32
19 13 19 17 18 16 11 10 6 2 2 2 2 4 7 7 7 12 17 24 27 21 18 19 13 17 16 12 10 16 18 16 13 15 16 16 21 26 27 30 30 26 27 30
11 14 16 19 17 17 16 14 4 3 2 3 1 4 5 6 3 2 12 21 25 20 17 14 14 15 18 15 15 20 19 17 16 13 15 18 23 25 29 31 31 31 31 32
15 11 15 16 12 18 17 14 8 6 4 3 3 1 2 6 3 2 6 15 23 19 15 15 15 14 16 18 20 19 19 17 16 16 19 20 25 28 35 36 39 41 39 39
28 9 13 16 15 17 16 16 15 9 6 9 6 11 9 5 4 4 8 13 20 19 20 20 17 17 19 21 21 16 18 21 21 22 22 24 28 33 36 37 41 45 45 43
28 14 10 7 12 15 17 18 17 15 13 13 8 9 13 15 12 10 10 14 17 24 24 24 21 22 23 23 21 20 22 22 23 24 26 29 35 38 39 42 46 45 47 48
19 22 23 19 23 20 24 23 20 16 12 11 15 18 17 14 12 13 14 16 25 26 25 25 25 27 27 24 23 23 24 25 26 29 32 36 39 41 48 47 47 49 49 48
26 23 26 25 26 25 25 25 19 18 14 10 12 15 11 15 18 19 19 21 25 29 28 26 29 29 27 27 25 25 27 28 31 34 38 40 44 51 51 49 48 47 46 46
26 19 25 22 20 18 23 21 17 14 14 14 13 18 16 13 14 17 17 16 16 18 23 26 25 26 27 24 26 27 28 31 36 39 41 47 52 50 50 50 47 44 45 44
23 22 23 13 21 19 13 20 17 13 12 9 9 11 15 18 22 22 19 19 20 22 25 24 25 21 23 26 28 29 32 37 41 44 49 51 52 54 54 54 52 50 50 44
22 23 22 13 17 7 10 14 13 13 10 7 15 16 14 9 11 12 13 16 16 20 20 19 21 24 25 28 32 36 40 44 46 49 51 50 53 56 54 50 48 45 44 42
24 24 14 10 14 7 7 14 13 10 11 12 15 15 13 9 5 6 5 5 8 12 16 19 22 26 31 34 38 42 44 46 49 51 51 52 54 53 48 45 43 45 44 43
23 22 21 13 8 9 13 10 10 13 15 19 12 10 6 4 5 6 6 9 12 14 18 23 26 29 33 37 40 43 47 50 53 52 50 49 51 49 44 44 45 44 43 42
23 22 19 18 7 7 10 9 13 15 13 9 6 8 5 6 9 9 11 13 17 21 24 25 29 34 39 42 46 47 48 45 47 49 51 45 43 41 42 42 43 44 40 39
23 20 17 17 12 9 12 16 21 18 17 13 9 10 11 12 13 14 15 16 18 21 24 29 36 40 42 43 39 38 40 47 40 39 38 35 36 38 40 41 41 38 37 36
18 21 19 18 16 12 13 17 20 21 21 16 11 11 13 15 15 14 15 19 23 26 31 36 38 35 32 33 37 38 34 36 39 39 39 38 36 36 38 38 33 33 34 35
21 21 16 14 19 20 17 17 19 22 20 17 15 16 16 14 14 16 19 25 30 33 33 31 29 30 32 31 28 29 29 34 34 29 29 31 33 34 33 30 31 33 35 30
18 16 16 18 14 15 16 15 15 16 15 15 14 12 12 14 17 23 27 24 24 26 27 26 27 26 25 25 26 25 25 29 30 29 29 29 31 31 31 31 33 36 33 29
11 10 12 12 9 13 14 17 15 13 11 11 12 14 17 20 24 24 21 20 22 25 26 27 27 27 25 25 25 24 25 28 30 29 34 31 28 30 31 30 25 25 28 22
Wind_Direction
198 190 180 171 161 115 96 119 176 177 182 211 226 240 253 211 177 172 185 190 167 136 124 140 154 156 153 154 149 155 162 168 171 183 200 241 251 259 268 279 285 290 291 289
176 174 169 171 152 144 141 162 163 182 184 209 216 221 231 217 204 175 172 177 187 166 120 112 127 145 147 157 166 186 185 184 196 208 219 238 252 261 268 278 282 287 293 297
177 173 173 173 169 167 163 172 219 207 197 194 204 212 226 225 211 191 163 173 190 186 141 114 116 135 164 164 161 162 203 206 222 271 285 280 274 275 283 283 282 280 282 286
185 182 183 179 176 179 173 160 159 159 177 187 201 214 228 237 219 204 185 182 181 184 162 139 113 137 156 167 165 116 93 94 89 38 14 333 301 294 284 283 278 284 285 278
180 191 189 186 179 166 202 202 199 174 178 199 210 219 232 238 236 222 200 190 179 183 186 164 123 124 143 123 116 105 96 84 66 49 7 335 324 309 292 295 295 278 278 282
184 182 191 201 188 174 165 194 225 227 231 220 206 214 240 238 234 229 206 199 183 181 180 177 166 131 113 116 122 118 72 57 39 26 21 356 339 325 309 298 293 294 294 291
188 184 191 194 194 189 196 223 163 195 200 227 165 199 237 260 234 235 215 205 195 187 193 185 178 166 148 144 153 180 195 243 316 301 338 0 346 332 320 312 301 291 285 282
189 196 197 201 207 206 196 173 153 203 231 145 227 234 239 252 252 216 214 206 200 195 200 198 188 195 204 198 209 221 221 239 263 266 292 309 329 334 334 327 304 294 290 286
202 202 209 217 222 216 205 173 168 164 259 259 215 285 278 256 260 235 214 202 203 203 202 196 202 206 216 229 231 220 232 257 273 266 283 306 315 328 328 327 324 313 302 296
201 202 211 217 220 224 215 185 159 192 196 281 210 276 272 299 359 3 226 208 204 206 203 207 220 206 214 232 242 234 240 260 269 287 286 304 318 320 325 324 319 310 301 297
205 196 191 193 186 189 177 183 189 187 183 280 299 291 347 356 346 221 229 213 207 215 220 226 227 222 225 237 245 246 247 267 277 274 280 300 310 310 317 319 321 316 307 296
207 211 174 192 196 199 204 213 209 218 217 211 248 286 294 300 306 224 185 207 214 223 231 233 235 240 243 247 252 264 268 274 269 271 283 296 304 306 313 317 317 314 307 303
203 209 177 184 208 211 215 215 218 229 234 223 241 280 289 283 271 266 250 220 225 229 232 239 247 252 252 254 263 273 271 277 276 280 284 289 297 306 311 310 311 309 305 300
217 217 215 215 220 217 218 226 227 220 216 236 242 273 276 267 257 250 249 246 235 237 240 246 254 258 258 263 271 272 280 278 278 278 285 291 298 302 305 305 305 302 299 299
230 223 225 231 234 236 232 230 221 214 231 245 274 265 262 259 252 254 248 252 246 243 246 248 251 255 259 264 267 274 277 277 278 285 290 294 295 294 300 303 305 305 303 299
225 218 221 211 218 214 214 205 204 216 235 241 259 275 277 266 252 250 238 232 234 237 243 248 253 260 260 270 278 278 279 282 286 289 290 292 293 295 300 305 306 301 302 299
212 207 190 177 178 178 193 206 220 233 253 249 256 286 287 272 261 257 255 253 251 250 252 253 258 256 264 271 275 279 281 286 289 288 290 293 296 300 302 302 301 301 298 294
211 204 190 173 170 200 216 221 232 242 235 258 298 305 300 287 271 265 260 247 244 249 250 250 254 262 271 283 286 287 288 287 286 289 294 295 296 300 302 303 302 302 303 297
212 213 194 176 199 227 224 221 229 249 260 275 292 290 284 279 265 259 259 242 236 242 250 262 270 270 271 277 282 285 286 287 289 291 294 295 298 299 301 305 303 303 304 300
202 206 212 191 198 222 248 209 235 253 261 283 278 260 265 244 257 265 249 247 248 253 258 263 268 279 287 289 288 289 290 292 297 296 294 296 301 300 300 301 300 302 302 299
196 202 205 208 202 212 186 212 228 218 260 281 225 227 241 217 227 237 234 239 246 255 267 281 292 295 294 293 292 293 297 302 301 297 296 299 299 298 298 300 303 301 298 295
196 189 200 204 208 230 212 227 227 252 244 260 238 229 216 220 226 232 242 256 274 285 292 295 294 291 292 294 297 298 293 305 306 305 303 305 303 301 301 301 301 300 297 295
191 199 200 208 219 230 233 235 239 242 244 245 240 218 217 226 242 261 276 281 285 289 288 290 292 293 296 299 300 302 306 312 311 304 299 301 303 303 301 300 303 303 299 295
189 198 211 222 231 236 237 235 236 234 236 240 228 224 232 247 260 272 285 292 292 289 287 290 295 300 302 302 305 308 312 326 328 327 320 311 305 307 302 303 304 306 313 301
206 214 219 221 227 222 216 211 219 225 221 220 226 235 250 267 280 293 303 307 302 294 292 296 300 303 308 309 309 311 310 314 317 323 321 318 309 310 310 311 305 300 302 296
212 226 225 228 231 224 215 206 210 217 226 235 247 260 274 284 295 298 298 303 302 300 300 302 302 304 311 312 309 309 313 316 316 315 321 311 319 321 323 312 313 313 303 302
Height
3187 3190 3191 3194 3195 3195 3195 3197 3198 3200 3202 3204 3205 3206 3208 3210 3211 3212 3214 3216 3217 3217 3218 3218 3219 3219 3220 3221 3221 3223 3224 3225 3226 3227 3228 3229 3229 3229 3229 3229 3229 3229 3229 3229
3187 3188 3191 3192 3194 3194 3195 3196 3198 3199 3201 3203 3204 3205 3206 3209 3210 3212 3214 3216 3217 3217 3218 3219 3220 3221 3221 3221 3222 3222 3223 3224 3225 3225 3226 3227 3227 3228 3228 3228 3228 3227 3227 3226
3185 3188 3189 3191 3193 3194 3195 3195 3196 3198 3199 3201 3203 3205 3205 3207 3208 3210 3212 3214 3216 3218 3218 3219 3219 3220 3220 3221 3221 3222 3222 3223 3225 3226 3225 3226 3226 3227 3227 3226 3226 3225 3225 3224
3184 3186 3188 3190 3192 3193 3194 3195 3196 3197 3199 3200 3202 3204 3204 3205 3206 3207 3209 3211 3213 3216 3217 3218 3219 3219 3220 3220 3221 3222 3223 3224 3224 3224 3224 3224 3223 3223 3224 3223 3222 3222 3220 3220
3183 3184 3186 3189 3191 3192 3194 3194 3195 3196 3197 3199 3201 3203 3202 3202 3202 3203 3206 3209 3210 3213 3215 3217 3218 3218 3219 3219 3221 3222 3222 3223 3223 3222 3221 3220 3220 3220 3220 3219 3218 3218 3217 3215
3180 3182 3185 3187 3189 3190 3192 3193 3193 3194 3195 3198 3198 3200 3198 3198 3197 3200 3203 3206 3208 3210 3213 3214 3216 3217 3218 3218 3219 3220 3220 3220 3220 3220 3219 3218 3218 3217 3216 3215 3213 3212 3210 3208
3177 3180 3182 3185 3187 3189 3190 3191 3192 3194 3193 3193 3196 3198 3194 3193 3193 3195 3200 3204 3206 3208 3210 3212 3213 3215 3216 3217 3217 3217 3217 3217 3217 3217 3218 3218 3217 3215 3212 3210 3207 3205 3204 3203
3175 3179 3180 3182 3184 3186 3188 3190 3190 3191 3191 3193 3194 3193 3192 3191 3190 3191 3194 3200 3203 3205 3208 3210 3211 3213 3214 3215 3215 3215 3214 3214 3214 3214 3214 3213 3212 3210 3209 3207 3203 3200 3197 3194
3171 3175 3176 3179 3181 3185 3186 3188 3190 3190 3191 3192 3191 3191 3190 3189 3188 3188 3191 3194 3199 3202 3205 3207 3209 3211 3212 3212 3212 3212 3212 3211 3210 3210 3209 3207 3205 3203 3200 3198 3197 3195 3190 3186
3169 3173 3174 3175 3178 3180 3182 3185 3188 3189 3190 3189 3189 3189 3188 3188 3187 3187 3188 3191 3195 3199 3202 3204 3205 3207 3208 3208 3208 3208 3208 3208 3207 3206 3205 3203 3200 3197 3194 3192 3189 3186 3184 3180
3166 3169 3172 3173 3174 3176 3179 3181 3184 3186 3188 3187 3188 3188 3187 3187 3187 3187 3188 3189 3193 3196 3198 3200 3201 3202 3203 3203 3204 3204 3205 3204 3202 3200 3199 3196 3194 3191 3188 3184 3181 3177 3173 3170
3162 3165 3167 3170 3171 3173 3175 3177 3180 3182 3186 3185 3186 3186 3184 3185 3185 3186 3187 3188 3191 3193 3194 3195 3197 3197 3198 3198 3199 3200 3199 3198 3196 3194 3192 3190 3188 3185 3181 3176 3172 3167 3162 3158
3158 3161 3164 3167 3171 3170 3172 3174 3176 3178 3180 3181 3183 3181 3180 3181 3182 3183 3184 3185 3186 3188 3189 3191 3192 3192 3193 3193 3194 3193 3192 3191 3190 3188 3186 3183 3180 3176 3171 3167 3163 3158 3152 3147
3154 3156 3158 3161 3163 3166 3167 3169 3171 3174 3176 3177 3177 3177 3177 3177 3178 3179 3180 3180 3181 3183 3184 3186 3186 3187 3187 3188 3188 3188 3186 3185 3183 3181 3178 3175 3171 3166 3162 3158 3152 3147 3141 3136
3148 3151 3153 3156 3158 3160 3163 3165 3167 3169 3172 3173 3173 3172 3174 3174 3174 3174 3175 3175 3176 3177 3179 3180 3181 3182 3183 3184 3184 3183 3181 3178 3175 3173 3170 3166 3162 3156 3152 3146 3141 3135 3129 3124
3141 3144 3148 3150 3153 3155 3158 3160 3164 3166 3167 3168 3169 3169 3170 3170 3170 3170 3170 3170 3171 3172 3173 3175 3177 3178 3178 3178 3177 3175 3174 3171 3168 3164 3160 3156 3150 3144 3140 3134 3129 3124 3118 3112
3136 3139 3143 3147 3149 3152 3156 3157 3159 3161 3162 3163 3164 3166 3165 3164 3164 3164 3165 3166 3167 3168 3169 3171 3172 3173 3173 3173 3172 3169 3166 3162 3158 3154 3149 3143 3137 3132 3128 3123 3117 3112 3106 3100
3131 3136 3140 3143 3148 3152 3149 3152 3154 3156 3157 3159 3160 3160 3159 3159 3159 3159 3160 3161 3162 3164 3165 3167 3168 3168 3167 3165 3163 3159 3156 3152 3147 3142 3137 3132 3126 3120 3115 3109 3104 3098 3093 3088
3130 3133 3135 3139 3142 3143 3145 3148 3150 3151 3154 3155 3156 3155 3155 3156 3156 3157 3157 3158 3160 3161 3162 3162 3162 3162 3160 3158 3154 3150 3147 3141 3136 3131 3124 3119 3113 3106 3101 3097 3092 3088 3082 3078
3125 3129 3133 3134 3137 3138 3141 3144 3146 3148 3149 3150 3151 3152 3152 3153 3155 3155 3155 3156 3156 3157 3157 3156 3155 3154 3152 3148 3142 3137 3133 3128 3123 3116 3110 3105 3100 3094 3090 3085 3081 3077 3071 3067
3120 3123 3127 3129 3132 3134 3137 3140 3143 3146 3149 3146 3148 3149 3150 3151 3152 3152 3152 3152 3152 3152 3151 3150 3148 3145 3140 3136 3130 3126 3121 3115 3108 3103 3098 3093 3088 3083 3078 3074 3070 3066 3061 3057
3115 3120 3123 3126 3128 3132 3134 3137 3140 3141 3141 3143 3144 3145 3146 3147 3147 3147 3147 3147 3147 3146 3143 3141 3138 3134 3130 3125 3119 3115 3111 3105 3099 3093 3088 3082 3077 3073 3068 3063 3060 3056 3051 3047
3114 3115 3119 3124 3126 3128 3130 3131 3134 3135 3137 3138 3139 3140 3141 3141 3142 3142 3142 3142 3140 3138 3136 3132 3127 3124 3120 3115 3110 3105 3101 3095 3089 3082 3078 3073 3068 3063 3059 3054 3050 3046 3042 3038
3108 3112 3116 3121 3122 3123 3125 3127 3129 3130 3131 3133 3134 3135 3136 3138 3138 3138 3137 3135 3133 3129 3125 3121 3118 3115 3111 3106 3102 3096 3091 3087 3081 3074 3069 3063 3059 3056 3052 3047 3042 3038 3033 3029
3105 3108 3111 3114 3116 3118 3120 3122 3124 3126 3127 3129 3130 3132 3133 3133 3132 3131 3128 3125 3123 3120 3117 3114 3110 3107 3102 3099 3094 3090 3085 3081 3076 3070 3063 3058 3054 3049 3044 3040 3034 3029 3025 3020
3100 3102 3106 3107 3111 3114 3117 3119 3121 3123 3125 3126 3127 3128 3128 3127 3125 3123 3120 3117 3115 3112 3109 3106 3102 3098 3095 3091 3088 3084 3080 3075 3070 3064 3058 3052 3047 3043 3037 3030 3027 3022 3015 3013